Tracking 25723 objects as of 27-Jun-2022
HD Live streaming from Space Station
objects crossing your sky now

DELTA 1 DEB

Track DELTA 1 DEB now!
10-day predictions


NORAD ID: 12168
Int'l Code: 1978-026H
Perigee: 799.0 km
Apogee: 1,054.7 km
Inclination: 98.8 °
Period: 103.4 minutes
Semi major axis: 7297 km
RCS: 0.1563 m2 (medium)
Launch date: March 5, 1978
Source: United States (US)
Launch site: AIR FORCE WESTERN TEST RANGE (AFWTR)

Note: This is SATELLITE DEBRIS
aabbcc
Your satellite tracking list
Your tracking list is empty




NASA's NSSDC Master Catalog

Two Line Element Set (TLE):
1 12168U 78026H   22177.87997645  .00000093  00000-0  92483-4 0  9997
2 12168  98.8177  50.2374 0175209 204.7400 154.5283 13.92547969 98664
Source of the keplerian elements: AFSPC